Weather in Lào Cai

Vietnam     22°28′34″N   103°58′18″E
temp.,
°C
wind,
m/s
gust,
m/s
humid.,
%
clouds,
%
prec.,
mm/h
press.,
hPa
HPBL,
m
14 april, wed
wed1401:00+22w009482 0.1 101116
04:00+22sse0195100 0.0 101043
07:00+22sse1294100 0.1 1012215
10:00+27ese1268100 0.1 1012972
13:00+31ese225279 0.3 10081486
16:00+31se335184 0.3 10051373
19:00+24se258297 0.6 1007181
22:00+23sse1290100 0.0 101054
15 april, thu
thu1501:00+22se0093100 0.6 100928
04:00+22ese1395100 0.6 1009190
07:00+22se139394 0.9 1010310
10:00+27se2367100 0.1 10111037
13:00+31ese235191 0.2 10071594
16:00+29se345645 0.4 10061099
19:00+24se258415 0.4 1008291
22:00+22se139293 0.1 1011172
16 april, fri
fri1601:00+22ese1292100 0.4 101093
04:00+22se129599 0.3 1010119
07:00+23se139299 0.8 1012272
10:00+26se247497 0.7 1013885
13:00+27se346554 1.4 10101148
16:00+27se236876 0.3 10081062
19:00+22se1391100 0.6 1011117
22:00+22sse1393100 0.6 1014122
17 april, sat
sat1701:00+21sse1294100 3.4 101351
04:00+21sse1497100 5.6 1013157
07:00+21se1597100 9.8 1016307
10:00+20sse1397100 2.4 1018307
13:00+19sse129799 6.4 1016248
16:00+19se1397100 0.3 1015239
19:00+18se0298100 0.4 1016114
22:00+18sse0199100 5.0 1018105
18 april, sun
sun1801:00+18nne0099100 8.7 101694
04:00+18se12100100 6.6 1015132
07:00+18e0199100 9.2 1016104
10:00+20ne019394 0.1 1016306
13:00+25se127168 0.3 1011944
16:00+25se237250 0.3 1008892
19:00+20se149355 0.4 1010170
22:00+20se149571 0.0 1012267